Showing default

OPS 9341 (IDSCS 19), 3284

Orbit data source: Space-Track

OPS 9341 (IDSCS 19), 3284 is a payload satellite owned by SAMSO (US) in GEO that was launched on Thu, 13 Jun 1968 UTC via a TITAN IIIC launch vehicle from the Air Force Eastern Test Range (AFETR). Payload-class satellites include a variety of spacecraft equipped with specific instruments for various scientific and technological missions. These include communications satellites like Starlink; space stations such as the ISS; scientific satellites like the Hubble; Earth observation satellites from companies like Planet Labs, Umbra, and HawkEye 360; GPS; miniature CubeSats for education and research; and military/defense satellites.

Not visible in the next 10 days
Identifier
3284, 1968-050A
Orbit
GEO
Country
Flag of USUS
Related business
Manufacturer
Philco-Ford
Mission
Non-operational spacecraft
Bus & Motor
IDCSP, Unknown motor
Mass
45 kg wet, 45 kg dry
Launch date (UTC)
1968-06-13 (58 years ago)
Launch vehicle
TITAN IIIC
Launch site
Air Force Eastern Test Range (AFETR)
Object type
Payload
Rocket body
Debris
Shape & HBR
Unknown
Radar Cross Section
Medium (>0.1 m² and <1 m²)

Expand to show TLE details & history
Last TLE update: 2 days ago

TLE from 2 days ago
0 OPS 9341 (IDSCS 19)
1 03284U 68050A   26122.18453559 -.00000097  00000-0  00000-0 0  9996
2 03284   7.1205  52.1157 0012584 154.5027  10.6084  1.07854566 49711
Epoch: 2026-05-02T04:25Z
TLE epoch observation values (Epoch: 2026-05-02T04:25:43.874Z)
Latitude
1.80435°
Longitude
-69.17192°
Altitude
33,735.75 km
Speed
3.154 km/s
True Right ascension
14h 29m 28s
True Declination
1° 48' 09"
Sunlit
Object was in daylight at epoch
Visualization orbit readout
Latitude
Unknown
Longitude
Unknown
Altitude
Unknown
Speed
Unknown
Apparent Right ascension
Unknown
Apparent Declination
Unknown
Sunlit
N/A
Visualization observer readout
Local Sidereal Time
22:09:20
Azimuth
Unknown
Elevation
Unknown
Doppler factor
Unknown
Orbital elements
Apogee altitude
33,838.045 km
Perigee altitude
33,736.956 km
Semi-major axis
40,165.638 km
Eccentricity
0.00126
Inclination
7.1205°
RAAN
52.1157°
Arg. of periapsis
154.5027°
True anomaly
10.63499°
Mean anomaly
10.6084°
Eccentric anomaly
10.62169°
Mean motion
0.26963 °/min
Orbital period
1,335.18 mins
BSTAR
0
Loading maneuver chart data...
Computing Atmospheric mass density...
Loading historical data...
Loading historical data...
Loading historical data...
Loading historical data...
Loading historical data...
Loading historical data...
Loading historical data...

Documentation

Showing up to 5 results
|